[Iaude] MPEC F35: 2024 FV [a=2.40,e=0.57,i=1.0,H=25.6]

mpec at cfa.harvard.edu mpec at cfa.harvard.edu
Tue Mar 19 15:34:12 EDT 2024


M.P.E.C. 2024-F35                                Issued 2024 March 19, 19:32 UT

     The Minor Planet Electronic Circulars contain information on unusual
         minor planets, routine data on comets and natural satellites,
         and occasional editorial announcements.  They are published
    on behalf of Division F of the International Astronomical Union by the
          Minor Planet Center, Smithsonian Astrophysical Observatory,
                          Cambridge, MA 02138, U.S.A.
			  
             Prepared using the Tamkin Foundation Computer Network

                              MPC at CFA.HARVARD.EDU
            URL https://www.minorplanetcenter.net/    ISSN 1523-6714

                                    2024 FV                                     


Observations:
     K24F00V* C2024 03 17.58609113 32 00.743+14 17 16.23         20.61wXEF035F52
     K24F00V  C2024 03 17.60688413 32 20.145+14 14 45.64         20.40wXEF035F52
     K24F00V  C2024 03 17.61730213 32 29.883+14 13 30.10         20.42wXEF035F52
     K24F00V  C2024 03 18.46251913 46 24.724+12 32 36.37         20.23GVEF035F52
     K24F00V  C2024 03 18.46334113 46 25.459+12 32 30.40         20.16GVEF035F52
     K24F00V KC2024 03 19.33170013 59 54.84 +10 47 20.6          20.1 GVEF035H21
     K24F00V KC2024 03 19.33449913 59 57.22 +10 47 00.6          20.3 GVEF035H21
     K24F00V KC2024 03 19.33729713 59 59.62 +10 46 40.3          20.2 GVEF035H21
     K24F00V 1C2024 03 19.54107114 03 03.892+10 23 11.90         20.57GVEF035T12
     K24F00V 1C2024 03 19.54264114 03 05.230+10 23 00.32         20.60GVEF035T12
     K24F00V  C2024 03 19.54377014 03 06.318+10 22 49.88         20.32GVEF035F51

Observer details:
F51 Pan-STARRS 1, Haleakala.  Observers J. Herman, T. Lowe, P. Minguez, A.
    Schultz, I. Smith.  Measurers K. Chambers, T. de Boer, J. Fairlamb, H.
    Gao, M. Huber, C.-C. Lin, E. Magnier, Y. Ramanjooloo, R. Wainscoat, R.
    Weryk.  1.8-m Ritchey-Chretien + CCD.
F52 Pan-STARRS 2, Haleakala.  Observers J. Herman, T. Lowe, P. Minguez, A.
    Schultz, I. Smith.  Measurers K. Chambers, T. de Boer, J. Fairlamb, H.
    Gao, M. Huber, C.-C. Lin, E. Magnier, Y. Ramanjooloo, R. Wainscoat, R.
    Weryk.  1.8-m Ritchey-Chretien + CCD.
H21 Astronomical Research Observatory, Westfield.  Observer R. Holmes.
    Measurers T. Linder, R. Holmes, L. Horn.  0.76-m f/3.0 astrograph + CCD.
T12 University of Hawaii 88-inch telescope, Maunakea.  Observer J. Fairlamb.
    Measurers R. Weryk, J. Fairlamb, Y. Ramanjooloo, R. Wainscoat.  2.24-m
    f/10.1 reflector + CCD.

Orbital elements:
2024 FV                                                  Earth MOID = 0.0467 AU
Epoch 2024 Mar. 31.0 TT = JDT 2460400.5                 MPC                     
M   3.13400              (2000.0)            P               Q                  
n   0.26429814     Peri.   95.70416     -0.99982736     -0.00416994             
a   2.4047687      Node    84.05786     -0.00341041     -0.91675284             
e   0.5678573      Incl.    1.04311     +0.01826520     -0.39943314             
P   3.73           H   25.67          G   0.15           U   8                  
Residuals in seconds of arc
240317 F52  0.0   0.1+    240318 F52  0.0   0.1-    240319 T12  0.2-  0.2+
240317 F52  0.2+  0.1+    240319 H21  0.2+  0.1-    240319 T12  0.2+  0.0
240317 F52  0.1+  0.2+    240319 H21  0.1-  0.0     240319 F51  0.0   0.2+
240318 F52  0.1-  0.0     240319 H21  0.1-  0.1-

Ephemeris:
2024 FV                  a,e,i = 2.40, 0.57, 1                   q = 1.0392
Date    TT    R. A. (2000) Decl.     Delta      r    Elong.  Phase     V
2024 02 18    08 46 31.7 +26 17 13   0.1270  1.1062   157.1    20.3    22.4
...
2024 03 04    10 07 38.1 +27 54 46   0.07126 1.0567   155.3    23.1    21.2
...
2024 03 12    11 55 41.2 +23 29 27   0.05283 1.0431   158.8    20.1    20.4
...
2024 03 18    13 38 52.9 +13 28 32   0.05021 1.0393   150.5    28.1    20.5
2024 03 19    13 54 47.6 +11 28 36   0.05091 1.0392   148.3    30.3    20.6
2024 03 20    14 09 53.7 +09 29 08   0.05191 1.0393   146.0    32.4    20.7
...
2024 03 26    15 21 13.9 -00 51 27   0.06306 1.0429   134.7    42.8    21.4
...
2024 04 03    16 14 09.5 -09 08 27   0.08599 1.0562   129.1    47.3    22.2
...
2024 04 18    16 49 49.6 -15 54 12   0.1375  1.1052   134.7    40.2    23.2

A. U. Tomatic                (C) Copyright 2024 MPC           M.P.E.C. 2024-F35





More information about the Iaude mailing list